Year,Month,Day,Hour,Minute,Value (Times are PST for temperature in C)
2010,02,20,09,37,4.90
2010,02,20,09,38,4.90
2010,02,20,09,39,4.90
2010,02,20,09,40,4.90
2010,02,20,09,41,5.00
2010,02,20,09,42,5.00
2010,02,20,09,43,5.00
2010,02,20,09,44,5.00
2010,02,20,09,45,5.00
2010,02,20,09,46,5.00
2010,02,20,09,47,4.90
2010,02,20,09,48,4.90
2010,02,20,09,49,4.90
2010,02,20,09,50,4.90
2010,02,20,09,51,4.80
2010,02,20,09,52,4.80
2010,02,20,09,53,4.80
2010,02,20,09,54,4.80
2010,02,20,09,55,4.80
2010,02,20,09,56,4.90
2010,02,20,09,57,4.90
2010,02,20,09,58,4.90
2010,02,20,09,59,4.90
2010,02,20,10,00,5.00
2010,02,20,10,01,5.00
2010,02,20,10,02,5.00
2010,02,20,10,03,5.00
2010,02,20,10,04,5.10
2010,02,20,10,05,5.10
2010,02,20,10,06,5.10
2010,02,20,10,07,5.10
2010,02,20,10,08,5.10
2010,02,20,10,09,5.10
2010,02,20,10,10,5.10
2010,02,20,10,11,5.10
2010,02,20,10,12,5.10
2010,02,20,10,13,5.10
2010,02,20,10,14,5.10
2010,02,20,10,15,5.10
2010,02,20,10,16,5.10
2010,02,20,10,17,5.10
2010,02,20,10,18,5.10
2010,02,20,10,19,5.10
2010,02,20,10,20,5.10
2010,02,20,10,21,5.20
2010,02,20,10,22,5.20
2010,02,20,10,23,5.20
2010,02,20,10,24,5.20
2010,02,20,10,25,5.20
2010,02,20,10,26,5.20
2010,02,20,10,27,5.20
2010,02,20,10,28,5.20
2010,02,20,10,29,5.20
2010,02,20,10,30,5.20
2010,02,20,10,31,5.20
2010,02,20,10,32,5.10
2010,02,20,10,33,5.10
2010,02,20,10,34,5.10
2010,02,20,10,35,5.10
2010,02,20,10,36,5.20
2010,02,20,10,37,5.20
2010,02,20,10,38,5.20
2010,02,20,10,39,5.20
2010,02,20,10,40,5.20
2010,02,20,10,41,5.30
2010,02,20,10,42,5.30
2010,02,20,10,43,5.30
2010,02,20,10,44,5.40
2010,02,20,10,45,5.40
2010,02,20,10,46,5.40
2010,02,20,10,47,5.50
2010,02,20,10,48,5.50
2010,02,20,10,49,5.50
2010,02,20,10,50,5.60
2010,02,20,10,51,5.60
2010,02,20,10,52,5.60
2010,02,20,10,53,5.70
2010,02,20,10,54,5.70
2010,02,20,10,55,5.70
2010,02,20,10,56,5.80
2010,02,20,10,57,5.80
2010,02,20,10,58,5.80
2010,02,20,10,59,5.90
2010,02,20,11,00,5.90
2010,02,20,11,01,5.90
2010,02,20,11,02,6.00
2010,02,20,11,03,6.00
2010,02,20,11,04,6.10
2010,02,20,11,05,6.10
2010,02,20,11,06,6.00
2010,02,20,11,07,6.00
2010,02,20,11,08,5.90
2010,02,20,11,09,5.90
2010,02,20,11,10,5.90
2010,02,20,11,11,5.90
2010,02,20,11,12,5.90
2010,02,20,11,13,5.90
2010,02,20,11,14,5.90
2010,02,20,11,15,5.90
2010,02,20,11,16,5.90
2010,02,20,11,17,6.00
2010,02,20,11,18,6.00
2010,02,20,11,19,6.10
2010,02,20,11,20,6.20
2010,02,20,11,21,6.30
2010,02,20,11,22,6.40
2010,02,20,11,23,6.50
2010,02,20,11,24,6.60
2010,02,20,11,25,6.60
2010,02,20,11,26,6.70
2010,02,20,11,27,6.70
2010,02,20,11,28,6.70
2010,02,20,11,29,6.80
2010,02,20,11,30,6.70
2010,02,20,11,31,6.70
2010,02,20,11,32,6.70
2010,02,20,11,33,6.70
2010,02,20,11,34,6.70
2010,02,20,11,35,6.80
2010,02,20,11,36,6.80
2010,02,20,11,37,6.80
2010,02,20,11,38,6.80
2010,02,20,11,39,6.80
2010,02,20,11,40,6.80
2010,02,20,11,41,6.80
2010,02,20,11,42,6.80
2010,02,20,11,43,6.80
2010,02,20,11,44,6.90
2010,02,20,11,45,6.90
2010,02,20,11,46,6.90
2010,02,20,11,47,6.90
2010,02,20,11,48,6.90
2010,02,20,11,49,6.80
2010,02,20,11,50,6.70
2010,02,20,11,51,6.70
2010,02,20,11,52,6.70
2010,02,20,11,53,6.70
2010,02,20,11,54,6.70
2010,02,20,11,55,6.70
2010,02,20,11,56,6.70
2010,02,20,11,57,6.70
2010,02,20,11,58,6.70
2010,02,20,11,59,6.70
2010,02,20,12,00,6.70
2010,02,20,12,01,6.70
2010,02,20,12,02,6.80
2010,02,20,12,03,6.80
2010,02,20,12,04,6.90
2010,02,20,12,05,6.90
2010,02,20,12,06,7.00
2010,02,20,12,07,7.10
2010,02,20,12,08,7.10
2010,02,20,12,09,7.20
2010,02,20,12,10,7.30
2010,02,20,12,11,7.40
2010,02,20,12,12,7.40
2010,02,20,12,13,7.50
2010,02,20,12,14,7.60
2010,02,20,12,15,7.70
2010,02,20,12,16,7.80
2010,02,20,12,17,7.90
2010,02,20,12,18,7.90
2010,02,20,12,19,8.00
2010,02,20,12,20,8.00
2010,02,20,12,21,8.10
2010,02,20,12,22,8.10
2010,02,20,12,23,8.10
2010,02,20,12,24,8.10
2010,02,20,12,25,8.10
2010,02,20,12,26,8.10
2010,02,20,12,27,8.10
2010,02,20,12,28,8.10
2010,02,20,12,29,8.10
2010,02,20,12,30,8.10
2010,02,20,12,31,8.20
2010,02,20,12,32,8.20
2010,02,20,12,33,8.20
2010,02,20,12,34,8.20
2010,02,20,12,35,8.30
2010,02,20,12,36,8.30
2010,02,20,12,37,8.40
2010,02,20,12,38,8.40
2010,02,20,12,39,8.40
2010,02,20,12,40,8.50
2010,02,20,12,41,8.50
2010,02,20,12,42,8.50
2010,02,20,12,43,8.50
2010,02,20,12,44,8.60
2010,02,20,12,45,8.60
2010,02,20,12,46,8.60
2010,02,20,12,47,8.70
2010,02,20,12,48,8.70
2010,02,20,12,49,8.80
2010,02,20,12,50,8.80
2010,02,20,12,51,8.80
2010,02,20,12,52,8.80
2010,02,20,12,53,8.80
2010,02,20,12,54,8.90
2010,02,20,12,55,8.90
2010,02,20,12,56,8.90
2010,02,20,12,57,8.90
2010,02,20,12,58,9.00
2010,02,20,12,59,9.00
2010,02,20,13,00,9.10
2010,02,20,13,01,9.10
2010,02,20,13,02,9.10
2010,02,20,13,03,9.10
2010,02,20,13,04,9.20
2010,02,20,13,05,9.10
2010,02,20,13,06,9.10
2010,02,20,13,07,9.10
2010,02,20,13,08,9.10
2010,02,20,13,09,9.10
2010,02,20,13,10,9.10
2010,02,20,13,11,9.20
2010,02,20,13,12,9.20
2010,02,20,13,13,9.30
2010,02,20,13,14,9.30
2010,02,20,13,15,9.30
2010,02,20,13,16,9.30
2010,02,20,13,17,9.30
2010,02,20,13,18,9.30
2010,02,20,13,19,9.40
2010,02,20,13,20,9.40
2010,02,20,13,21,9.40
2010,02,20,13,22,9.50
2010,02,20,13,23,9.50
2010,02,20,13,24,9.40
2010,02,20,13,25,9.40
2010,02,20,13,26,9.40
2010,02,20,13,27,9.40
2010,02,20,13,28,9.50
2010,02,20,13,29,9.50
2010,02,20,13,30,9.50
2010,02,20,13,31,9.50
2010,02,20,13,32,9.50
2010,02,20,13,33,9.40
2010,02,20,13,34,9.40
2010,02,20,13,35,9.40
2010,02,20,13,36,9.30
2010,02,20,13,37,9.30
2010,02,20,13,38,9.20
2010,02,20,13,39,9.10
2010,02,20,13,40,9.00
2010,02,20,13,41,8.90
2010,02,20,13,42,8.90
2010,02,20,13,43,8.80
2010,02,20,13,44,8.80
2010,02,20,13,45,8.80
2010,02,20,13,46,8.90
2010,02,20,13,47,8.90
2010,02,20,13,48,9.00
2010,02,20,13,49,9.10
2010,02,20,13,50,9.20
2010,02,20,13,51,9.30
2010,02,20,13,52,9.40
2010,02,20,13,53,9.50
2010,02,20,13,54,9.60
2010,02,20,13,55,9.70
2010,02,20,13,56,9.80
2010,02,20,13,57,9.90
2010,02,20,13,58,10.00
2010,02,20,13,59,10.10
2010,02,20,14,00,10.20
2010,02,20,14,01,10.20
2010,02,20,14,02,10.30
2010,02,20,14,03,10.40
2010,02,20,14,04,10.40
2010,02,20,14,05,10.50
2010,02,20,14,06,10.50
2010,02,20,14,07,10.60
2010,02,20,14,08,10.60
2010,02,20,14,09,10.50
2010,02,20,14,10,10.30
2010,02,20,14,11,10.30
2010,02,20,14,12,10.30
2010,02,20,14,13,10.30
2010,02,20,14,14,10.30
2010,02,20,14,15,10.30
2010,02,20,14,16,10.30
2010,02,20,14,17,10.30
2010,02,20,14,18,10.30
2010,02,20,14,19,10.40
2010,02,20,14,20,10.40
2010,02,20,14,21,10.40
2010,02,20,14,22,10.30
2010,02,20,14,23,10.20
2010,02,20,14,24,10.10
2010,02,20,14,25,10.10
2010,02,20,14,26,10.10
2010,02,20,14,27,10.10
2010,02,20,14,28,10.10
2010,02,20,14,29,10.10
2010,02,20,14,30,10.10
2010,02,20,14,31,10.00
2010,02,20,14,32,10.00
2010,02,20,14,33,10.00
2010,02,20,14,34,9.90
2010,02,20,14,35,10.00
2010,02,20,14,36,9.90
2010,02,20,14,37,9.90
2010,02,20,14,38,9.90
2010,02,20,14,39,9.90
2010,02,20,14,40,9.90
2010,02,20,14,41,10.00
2010,02,20,14,42,10.10
2010,02,20,14,43,10.10
2010,02,20,14,44,10.20
2010,02,20,14,45,10.30
2010,02,20,14,46,10.40
2010,02,20,14,47,10.40
2010,02,20,14,48,10.50
2010,02,20,14,49,10.50
2010,02,20,14,50,10.60
2010,02,20,14,51,10.70
2010,02,20,14,52,10.70
2010,02,20,14,53,10.70
2010,02,20,14,54,10.80
2010,02,20,14,55,10.80
2010,02,20,14,56,10.80
2010,02,20,14,57,10.90
2010,02,20,14,58,10.90
2010,02,20,14,59,11.00
2010,02,20,15,00,10.90
2010,02,20,15,01,10.90
2010,02,20,15,02,10.90
2010,02,20,15,03,10.90
2010,02,20,15,04,10.90
2010,02,20,15,05,10.90
2010,02,20,15,06,10.90
2010,02,20,15,07,10.90
2010,02,20,15,08,10.90
2010,02,20,15,09,11.00
2010,02,20,15,10,11.00
2010,02,20,15,11,11.00
2010,02,20,15,12,11.10
2010,02,20,15,13,11.10
2010,02,20,15,14,11.20
2010,02,20,15,15,11.20
2010,02,20,15,16,11.30
2010,02,20,15,17,11.30
2010,02,20,15,18,11.40
2010,02,20,15,19,11.40
2010,02,20,15,20,11.50
2010,02,20,15,21,11.50
2010,02,20,15,22,11.50
2010,02,20,15,23,11.50
2010,02,20,15,24,11.50
2010,02,20,15,25,11.50
2010,02,20,15,26,11.50
2010,02,20,15,27,11.50
2010,02,20,15,28,11.50
2010,02,20,15,29,11.50
2010,02,20,15,30,11.40
2010,02,20,15,31,11.40
2010,02,20,15,32,11.40
2010,02,20,15,33,11.40
2010,02,20,15,34,11.40
2010,02,20,15,35,11.40
2010,02,20,15,36,11.40
2010,02,20,15,37,11.30
2010,02,20,15,38,11.30
2010,02,20,15,39,11.40
2010,02,20,15,40,11.40
2010,02,20,15,41,11.40
2010,02,20,15,42,11.40
2010,02,20,15,43,11.40
2010,02,20,15,44,11.40
2010,02,20,15,45,11.40
2010,02,20,15,46,11.40
2010,02,20,15,47,11.40
2010,02,20,15,48,11.30
2010,02,20,15,49,11.30
2010,02,20,15,50,11.30
2010,02,20,15,51,11.30
2010,02,20,15,52,11.40
2010,02,20,15,53,11.40
2010,02,20,15,54,11.40
2010,02,20,15,55,11.40
2010,02,20,15,56,11.50
2010,02,20,15,57,11.50
2010,02,20,15,58,11.60
2010,02,20,15,59,11.60
2010,02,20,16,00,11.60
2010,02,20,16,01,11.50
2010,02,20,16,02,11.50
2010,02,20,16,03,11.40
2010,02,20,16,04,11.40
2010,02,20,16,05,11.40
2010,02,20,16,06,11.30
2010,02,20,16,07,11.30
2010,02,20,16,08,11.30
2010,02,20,16,09,11.20
2010,02,20,16,10,11.20
2010,02,20,16,11,11.20
2010,02,20,16,12,11.20
2010,02,20,16,13,11.20
2010,02,20,16,14,11.20
2010,02,20,16,15,11.20
2010,02,20,16,16,11.20
2010,02,20,16,17,11.30
2010,02,20,16,18,11.30
2010,02,20,16,19,11.30
2010,02,20,16,20,11.30
2010,02,20,16,21,11.30
2010,02,20,16,22,11.40
2010,02,20,16,23,11.40
2010,02,20,16,24,11.40
2010,02,20,16,25,11.40
2010,02,20,16,26,11.40
2010,02,20,16,27,11.40
2010,02,20,16,28,11.40
2010,02,20,16,29,11.40
2010,02,20,16,30,11.40
2010,02,20,16,31,11.40
2010,02,20,16,32,11.30
2010,02,20,16,33,11.30
2010,02,20,16,34,11.20
2010,02,20,16,35,11.20
2010,02,20,16,36,11.10
2010,02,20,16,37,11.00
2010,02,20,16,38,10.90
2010,02,20,16,39,10.80
2010,02,20,16,40,10.70
2010,02,20,16,41,10.60
2010,02,20,16,42,10.50
2010,02,20,16,43,10.40
2010,02,20,16,44,10.30
2010,02,20,16,45,10.20
2010,02,20,16,46,10.10
2010,02,20,16,47,9.90
2010,02,20,16,48,9.80
2010,02,20,16,49,9.70
2010,02,20,16,50,9.60
2010,02,20,16,51,9.50
2010,02,20,16,52,9.40
2010,02,20,16,53,9.30
2010,02,20,16,54,9.20
2010,02,20,16,55,9.20
2010,02,20,16,56,9.10
2010,02,20,16,57,9.00
2010,02,20,16,58,8.90
2010,02,20,16,59,8.80
2010,02,20,17,00,8.70
2010,02,20,17,01,8.70
2010,02,20,17,02,8.60
2010,02,20,17,03,8.50
2010,02,20,17,04,8.40
2010,02,20,17,05,8.40
2010,02,20,17,06,8.30
2010,02,20,17,07,8.20
2010,02,20,17,08,8.20
2010,02,20,17,09,8.10
2010,02,20,17,10,8.00
2010,02,20,17,11,8.00
2010,02,20,17,12,7.90
2010,02,20,17,13,7.80
2010,02,20,17,14,7.80
2010,02,20,17,15,7.70
2010,02,20,17,16,7.70
2010,02,20,17,17,7.60
2010,02,20,17,18,7.60
2010,02,20,17,19,7.50
2010,02,20,17,20,7.40
2010,02,20,17,21,7.40
2010,02,20,17,22,7.30
2010,02,20,17,23,7.30
2010,02,20,17,24,7.30
2010,02,20,17,25,7.30
2010,02,20,17,26,7.30
2010,02,20,17,27,7.30
2010,02,20,17,28,7.30
2010,02,20,17,29,7.30
2010,02,20,17,30,7.30
2010,02,20,17,31,7.30
2010,02,20,17,32,7.30
